星链-35461(STARLINK-35461)

导读

STARLINK-35461是由美国于**2025年10月19日**发射的星链卫星,隶属于SpaceX星链星座项目。星链计划旨在构建全球卫星互联网星座,为全球偏远地区及网络覆盖薄弱区域提供高速宽带服务,该卫星入轨后将助力星链进一步扩大全球网络覆盖范围,提升星座整体服务能力。

Basic Information
目录编号:
66088
目录名称:
STARLINK-35461
国际标识:
2025-236C
轨道中心:
EARTH
卫星名称:
星链-35461
卫星全名:
星链-35461(STARLINK-35461)
卫星状态:
在轨 (已飞行320 天)
发射日期:
2025-10-19 UTC
国别 :
美国 (US)
星等 :
--
Orbit Information
数据来源 国际轨道数据
星历时间: 2026-09-04T03:50:55+0800
9小时前
查看轨道信息
半长轴: 6840.836km
偏心率: 0.0001345
轨道倾角: 53.161°
近地点辐角 101.472°
升交点赤经 355.351°
平近点角 258.643°
近地点: 461.778km
远地点: 463.62km
周期: 93.848分钟
每日圈数: 15.344016
Detailed Information
固有亮度:
5
最大亮度:
2.5
卫星平台:
Starlink V1.0
覆盖范围:
全球
运营商:
太空探索技术公司
运营商所在国:
美国
制造商(研发单位):
太空探索技术公司
制造商所在国:
美国
使用方式:
暂无
Satellite Introduction
Starlink 计划是 SpaceX 推出的全球卫星互联网项目,通过发射低轨道卫星,为全球尤其是偏远地区提供高速、低延迟的互联网服务。自 2019 年起,Starlink 已部署数千颗卫星,旨在缩小全球数字鸿沟,推动互联网普及。该项目还为军事、航空等行业提供通信支持,带来广泛经济效益。
2D Orbit Map
3D Orbit Map
Orbit Altitude Analysis Chart
Orbit Inclination Analysis Chart
Orbit Comprehensive Analysis Chart
View Comprehensive Chart
Conjunction Data List
Event ID Objects TCA Miss Dist (km) Collision Risk Probability Collision Risk Index (CRI) Action
CDM_260905-121205-926506-608821
2026-09-05T
12:12:27+0000
0.852 km
远距离
2.904073E-5 中风险 0.64
CDM_260904-043105-866206-608822
2026-09-04T
04:31:43+0000
1.729 km
极远距离
2.388267E-6 低风险 0.43
CDM_260903-131506-608806-959921
2026-09-03T
13:15:04+0000
1.692 km
极远距离
1.479963E-6 低风险 0.38
CDM_260905-134605-926506-608821
2026-09-05T
13:46:15+0000
2.254 km
极远距离
1.432289E-6 低风险 0.38
CDM_260905-094105-469506-608821
OBJECT P (54695)
2026-09-05T
09:41:00+0000
2.523 km
极远距离
1.369657E-6 低风险 0.38
CDM_260901-174405-360006-608822
2026-09-01T
17:44:49+0000
2.748 km
极远距离
1.333114E-6 低风险 0.37
CDM_260903-035206-608806-959921
2026-09-03T
03:52:19+0000
1.844 km
极远距离
1.184414E-6 低风险 0.36
CDM_260903-081805-693406-608823
2026-09-03T
08:18:03+0000
2.762 km
极远距离
9.657278E-7 极低风险 0.35